This demonstration page uses our WeatherBlox Daily Observations layout. Learn more.

Left ArrowRight Arrow

39.08367, -84.50855

Hourly Observations for March 31, 2019

Temp ( °F °C ) Dew Point ( °F °C ) Humidity (%) Winds ( mph kmh ) Pressure ( in mb ) Visibility ( mi km ) Precip ( " mm )
12:53 am 00:53 Cloudy 38 3.3 33 0.6 83 83 NW 8 13 29.94 1014 10 16 N/A
1:53 am 01:53 Cloudy 38 3.3 32 undefined 79 79 NW 9 15 29.98 1015 10 16 N/A
2:53 am 02:53 Cloudy 37 2.8 31 -0.6 79 79 NW 9 15 30.01 1016 10 16 N/A
3:53 am 03:53 Cloudy 37 2.8 31 -0.6 79 79 WNW 8 13 30.04 1017 10 16 N/A
4:53 am 04:53 Cloudy 36 2.2 29 -1.7 76 76 WNW 10 17 30.06 1018 10 16 N/A
5:53 am 05:53 Cloudy 34 1.1 21 -6.1 59 59 NW 13 20 30.11 1020 10 16 N/A
6:02 am 06:02 Cloudy 34 1.1 21 -6.1 59 59 NW 9 15 30.14 1021 10 16 N/A
6:53 am 06:53 Partly Cloudy 32 undefined 18 -7.8 56 56 NNW 14 22 30.15 1021 10 16 N/A
7:53 am 07:53 Sunny 31 -0.6 19 -7.2 61 61 WNW 12 19 30.20 1023 10 16 N/A
8:53 am 08:53 Mostly Sunny 31 -0.6 20 -6.7 64 64 NW 14 22 30.23 1024 10 16 N/A
9:53 am 09:53 Mostly Sunny 33 0.6 19 -7.2 56 56 N 17 28 30.25 1025 10 16 N/A
10:53 am 10:53 Sunny 34 1.1 19 -7.2 54 54 NNW 10 17 30.27 1025 10 16 N/A
11:53 am 11:53 Mostly Cloudy 35 1.7 20 -6.7 54 54 NNW 12 19 30.29 1026 10 16 N/A
12:53 pm 12:53 Cloudy 36 2.2 19 -7.2 50 50 WNW 13 20 30.29 1026 10 16 N/A
1:53 pm 13:53 Cloudy 36 2.2 18 -7.8 48 48 WNW 12 19 30.30 1026 10 16 N/A
2:24 pm 14:24 Cloudy 36 2.2 19 -7.2 50 50 NW 10 17 30.31 1027 10 16 N/A
2:53 pm 14:53 Cloudy 37 2.8 19 -7.2 48 48 NW 8 13 30.30 1026 10 16 N/A
3:53 pm 15:53 Cloudy 36 2.2 18 -7.8 48 48 N 16 26 30.29 1026 10 16 N/A
4:53 pm 16:53 Cloudy 37 2.8 17 -8.3 44 44 W 12 19 30.29 1026 10 16 N/A
5:53 pm 17:53 Mostly Cloudy 36 2.2 17 -8.3 46 46 NW 10 17 30.32 1027 10 16 N/A
6:53 pm 18:53 Mostly Cloudy 35 1.7 17 -8.3 48 48 NNW 9 15 30.33 1027 10 16 N/A
7:53 pm 19:53 Mostly Cloudy 34 1.1 16 -8.9 48 48 NNW 9 15 30.35 1028 10 16 N/A
8:53 pm 20:53 Cloudy 34 1.1 17 -8.3 50 50 NW 8 13 30.37 1028 10 16 N/A
9:53 pm 21:53 Partly Cloudy 32 undefined 17 -8.3 54 54 VRB 6 9 30.38 1029 10 16 N/A
10:53 pm 22:53 Clear 31 -0.6 17 -8.3 56 56 NNW 3 6 30.40 1029 10 16 N/A
11:53 pm 23:53 Clear 31 -0.6 18 -7.8 59 59 N N/A 30.41 1030 10 16 N/A

Powered by AerisWeather